Location: Unspecified
(43.4354°N, 0.0000°E)
Time: 10:58:45
(UTC+00:00)

S-56A Canister/Altair - Pass Details

Date: 25 June 2019
Orbit: 633 x 2499 km, 38.9° (Epoch: 17 August)

Event Time Altitude Azimuth Distance (km) Brightness Sun altitude
Rises 11:49:45 0° 189° (S) 6,006 12.4 69.8°
Reaches altitude 10° 11:56:12 10° 171° (S) 4,743 12.0 69.9°
Maximum altitude 12:02:40 16° 141° (SE) 3,934 11.6 70.0°
Drops below altitude 10° 12:08:13 10° 109° (ESE) 3,986 11.4 69.9°
Sets 12:12:46 0° 89° (E) 4,605 11.5 69.8°
